User: anonymous   Login
Location: Caribou
(46.8667°N, 68.0167°W)
Time: 14:01:28
(UTC-04:00)
Language:

SL-08 RB Rocket - Orbit

View from above orbital plane
View from above orbital plane
View from above satellite
View from above satellite

Ground track
Ground track

The orbit data is extracted from the following two-line orbital elements,

1 26387U 00033D   16237.28948402  .00000063  00000-0  19446-4 0  9995
2 26387  98.0123 302.5038 0026161 197.5445 204.3305 14.68180088864316
Epoch (UTC): 24 August 2016 06:56:51
Eccentricity: 0.0026161
inclination: 98.0123°
perigee height: 648 km
apogee height: 685 km
right ascension of ascending node: 302.5038°
argument of perigee: 197.5445°
revolutions per day: 14.68180088
mean anomaly at epoch: 204.3305°
orbit number at epoch: 86431

The dashed part of the orbit path shows where the satellite is in the earth's shadow,  

DLR